Showing default

BEIDOU 3M22, 44794

Orbit data source: Space-Track

BEIDOU 3M22, 44794 is a payload satellite owned by CNSA (CN) in MEO that was launched on Sat, 23 Nov 2019 UTC via a CHANG ZHENG 3B/YZ-1 launch vehicle from the Xichang Space Center, China (XSC). Payload-class satellites include a variety of spacecraft equipped with specific instruments for various scientific and technological missions. These include communications satellites like Starlink; space stations such as the ISS; scientific satellites like the Hubble; Earth observation satellites from companies like Planet Labs, Umbra, and HawkEye 360; GPS; miniature CubeSats for education and research; and military/defense satellites.

Loading next visibility...
Identifier
44794, 2019-078B
Orbit
MEO
Last TLE update
1 day ago
Origin
Manufacturer
SECM
Mission
Operational Defense Navigation
Bus & Motor
BD-3M2, Unknown motor
Mass
1,014 kg wet, ~850 kg dry
Launch date (UTC)
2019-11-23 (6 years ago)
Launch vehicle
CHANG ZHENG 3B/YZ-1
Launch site
Xichang Space Center, China (XSC)
Object type
Payload
Rocket body
Debris
Shape & HBR
Box + 2 Pan, Unknown HBR
Radar Cross Section
8.984 m², Large (>1 m²)

Expand to show TLE details & history

TLE from 1 day ago
0 BEIDOU 3M22
1 44794U 19078B   25180.97583268 -.00000098  00000-0  00000-0 0  9995
2 44794  54.2285 312.1645 0003671  40.0627 319.9629  1.86227813 38091
Epoch: 2025-06-29T23:25Z
TLE epoch observation values (Epoch: 2025-06-29T23:25:11.943Z)
Latitude
-0°
Longitude
42.55585°
Altitude
21,520.793 km
Speed
3.78 km/s
True Right ascension
20h 48m 35s
True Declination
0° 00' 00"
Sunlit
Object was in daylight at epoch
Visualization orbit readout
Latitude
29.53136°
Longitude
-161.5286°
Altitude
21,532.161 km
Speed
3.78 km/s
Apparent Right ascension
06h 59m 30s
Apparent Declination
18° 27' 36"
Sunlit
Object is in daylight
Visualization observer readout
Local Sidereal Time
17:55:33
Azimuth
342.486° N
Elevation
-29.749°
Doppler factor
1
Orbital elements
Apogee altitude
21,538.651 km
Perigee altitude
21,518.162 km
Semi-major axis
27,906.544 km
Eccentricity
0.00037
Inclination
54.2285°
RAAN
312.1645°
Arg. of periapsis
40.0627°
True anomaly
Unknown
Mean anomaly
319.9629°
Eccentric anomaly
Unknown
Mean motion
0.46557 °/min
Orbital period
773.25 mins
BSTAR
0
Loading maneuver chart data...
Loading SW <> Apogee altitude chart data...
Loading historical data...
Loading historical data...
Loading historical data...
Loading historical data...
Loading historical data...
Loading historical data...
Loading historical data...
Other satellites on launch #78 in the year 2019 (2019-11-23 UTC)

BEIDOU 3M22 Visibility forecast

Observer location: undefined°, undefined°

Span
Click to sort rows by Start time (UTC) header in descending order
Start Az.
Max El. time (UTC)
Max El. Az.
Max El.
End time (UTC)
End Az.
414 mins2025-07-01 14:46:47.529Z271.535° WNW2025-07-01 18:38:47.529Z67.865° E45°2025-07-01 21:40:47.529Z168.103° S
|